Time,TemperatureF,DewpointF,PressureIn,WindDirection,WindDirectionDegrees,WindSpeedMPH,WindSpeedGustMPH,Humidity,HourlyPrecipIn,Conditions,Clouds,dailyrainin,SoftwareType,DateUTC
2013-02-24 00:01:00,11.0,6.0,-100.00,NW,309,8.0,9.0,80,0.00,,,-99.99,,2013-02-24 07:01:00,
2013-02-24 00:11:00,13.0,7.0,-100.00,NW,325,9.0,10.0,75,0.00,,,-99.99,,2013-02-24 07:11:00,
2013-02-24 00:21:00,14.0,7.0,-100.00,NW,313,11.0,13.0,74,0.00,,,-99.99,,2013-02-24 07:21:00,
2013-02-24 00:31:00,14.0,7.0,-100.00,NW,313,11.0,13.0,74,0.00,,,-99.99,,2013-02-24 07:31:00,
2013-02-24 00:41:00,14.0,7.0,-100.00,NW,313,11.0,13.0,74,0.00,,,-99.99,,2013-02-24 07:41:00,
2013-02-24 00:52:00,15.0,9.0,-100.00,NW,318,9.0,10.0,75,0.00,,,-99.99,,2013-02-24 07:52:00,
2013-02-24 01:01:00,15.0,9.0,-100.00,NW,318,9.0,10.0,75,0.00,,,-99.99,,2013-02-24 08:01:00,
2013-02-24 01:11:00,14.0,8.0,-100.00,NW,313,9.0,10.0,75,0.00,,,-99.99,,2013-02-24 08:11:00,
2013-02-24 01:22:00,12.0,6.0,-100.00,NW,308,8.0,9.0,75,0.00,,,-99.99,,2013-02-24 08:22:00,
2013-02-24 01:31:00,12.0,6.0,-100.00,NW,308,8.0,9.0,75,0.00,,,-99.99,,2013-02-24 08:31:00,
2013-02-24 01:42:00,12.0,6.0,-100.00,NW,308,8.0,9.0,75,0.00,,,-99.99,,2013-02-24 08:42:00,
2013-02-24 01:53:00,8.0,3.0,-100.00,NW,316,4.0,5.0,79,0.00,,,-99.99,,2013-02-24 08:53:00,
2013-02-24 02:01:00,8.0,3.0,-100.00,NW,316,4.0,5.0,79,0.00,,,-99.99,,2013-02-24 09:01:00,
2013-02-24 02:21:00,7.0,2.0,-100.00,NNW,335,4.0,6.0,78,0.00,,,-99.99,,2013-02-24 09:21:00,
2013-02-24 02:31:00,7.0,2.0,-100.00,NNW,335,4.0,6.0,78,0.00,,,-99.99,,2013-02-24 09:31:00,
2013-02-24 02:42:00,6.0,1.0,-100.00,NNW,336,5.0,5.0,78,0.00,,,-99.99,,2013-02-24 09:42:00,
2013-02-24 02:52:00,7.0,1.0,-100.00,South,176,4.0,6.0,77,0.00,,,-99.99,,2013-02-24 09:52:00,
2013-02-24 03:01:00,7.0,1.0,-100.00,South,176,4.0,6.0,77,0.00,,,-99.99,,2013-02-24 10:01:00,
2013-02-24 03:21:00,10.0,3.0,-100.00,SSW,202,3.0,5.0,73,0.00,,,-99.99,,2013-02-24 10:21:00,
2013-02-24 03:31:00,10.0,3.0,-100.00,SSW,202,3.0,5.0,73,0.00,,,-99.99,,2013-02-24 10:31:00,
2013-02-24 03:41:00,12.0,5.0,-100.00,SW,234,7.0,8.0,73,0.00,,,-99.99,,2013-02-24 10:41:00,
2013-02-24 03:52:00,11.0,2.0,-100.00,West,265,8.0,9.0,67,0.00,,,-99.99,,2013-02-24 10:52:00,
2013-02-24 04:01:00,11.0,2.0,-100.00,West,265,8.0,9.0,67,0.00,,,-99.99,,2013-02-24 11:01:00,
2013-02-24 04:11:00,13.0,3.0,-100.00,West,280,7.0,8.0,65,0.00,,,-99.99,,2013-02-24 11:11:00,
2013-02-24 04:21:00,13.0,3.0,-100.00,West,280,7.0,8.0,65,0.00,,,-99.99,,2013-02-24 11:21:00,
2013-02-24 04:31:00,13.0,3.0,-100.00,West,280,7.0,8.0,65,0.00,,,-99.99,,2013-02-24 11:31:00,
2013-02-24 04:41:00,9.0,2.0,-100.00,West,267,7.0,8.0,71,0.00,,,-99.99,,2013-02-24 11:41:00,
2013-02-24 04:52:00,5.0,-2.0,-100.00,West,263,6.0,7.0,72,0.00,,,-99.99,,2013-02-24 11:52:00,
2013-02-24 05:01:00,5.0,-2.0,-100.00,West,263,6.0,7.0,72,0.00,,,-99.99,,2013-02-24 12:01:00,
2013-02-24 05:11:00,6.0,-1.0,-100.00,WSW,251,6.0,8.0,76,0.00,,,-99.99,,2013-02-24 12:11:00,
2013-02-24 05:21:00,6.0,-1.0,-100.00,WSW,251,6.0,8.0,76,0.00,,,-99.99,,2013-02-24 12:21:00,
2013-02-24 05:32:00,6.0,-1.0,-100.00,WSW,251,6.0,8.0,76,0.00,,,-99.99,,2013-02-24 12:32:00,
2013-02-24 05:56:00,8.0,2.0,-100.00,WSW,246,6.0,7.0,74,0.00,,,-99.99,,2013-02-24 12:56:00,
2013-02-24 06:07:00,8.0,2.0,-100.00,WSW,246,6.0,7.0,74,0.00,,,-99.99,,2013-02-24 13:07:00,
2013-02-24 06:24:00,8.0,2.0,-100.00,WSW,244,6.0,6.0,76,0.00,,,-99.99,,2013-02-24 13:24:00,
2013-02-24 06:32:00,8.0,2.0,-100.00,WSW,244,6.0,6.0,76,0.00,,,-99.99,,2013-02-24 13:32:00,
2013-02-24 06:45:00,8.0,2.0,-100.00,WSW,244,6.0,6.0,76,0.00,,,-99.99,,2013-02-24 13:45:00,
2013-02-24 07:02:00,10.0,2.0,-100.00,WSW,241,7.0,7.0,67,0.00,,,-99.99,,2013-02-24 14:02:00,
2013-02-24 07:12:00,9.0,-1.0,-100.00,SW,230,8.0,8.0,65,0.00,,,-99.99,,2013-02-24 14:12:00,
2013-02-24 07:23:00,9.0,4.0,-100.00,SW,226,7.0,8.0,80,0.00,,,-99.99,,2013-02-24 14:23:00,
2013-02-24 07:32:00,9.0,4.0,-100.00,SW,226,7.0,8.0,80,0.00,,,-99.99,,2013-02-24 14:32:00,
2013-02-24 07:43:00,9.0,4.0,-100.00,SW,226,7.0,8.0,80,0.00,,,-99.99,,2013-02-24 14:43:00,
2013-02-24 07:53:00,9.0,5.0,-100.00,SW,216,7.0,9.0,81,0.00,,,-99.99,,2013-02-24 14:53:00,
2013-02-24 08:02:00,9.0,5.0,-100.00,SW,216,7.0,9.0,81,0.00,,,-99.99,,2013-02-24 15:02:00,
2013-02-24 08:12:00,9.0,3.0,-100.00,SW,232,9.0,10.0,75,0.00,,,-99.99,,2013-02-24 15:12:00,
2013-02-24 08:22:00,11.0,3.0,-100.00,WSW,247,6.0,7.0,71,0.00,,,-99.99,,2013-02-24 15:22:00,
2013-02-24 08:32:00,11.0,3.0,-100.00,WSW,247,6.0,7.0,71,0.00,,,-99.99,,2013-02-24 15:32:00,
2013-02-24 08:42:00,10.0,1.0,-100.00,WNW,285,3.0,5.0,66,0.00,,,-99.99,,2013-02-24 15:42:00,
2013-02-24 08:52:00,11.0,2.0,-100.00,SW,236,6.0,7.0,69,0.00,,,-99.99,,2013-02-24 15:52:00,
2013-02-24 09:01:00,11.0,2.0,-100.00,SW,236,6.0,7.0,69,0.00,,,-99.99,,2013-02-24 16:01:00,
2013-02-24 09:11:00,10.0,2.0,-100.00,SSE,147,6.0,8.0,68,0.00,,,-99.99,,2013-02-24 16:11:00,
2013-02-24 09:21:00,10.0,2.0,-100.00,SSE,147,6.0,8.0,68,0.00,,,-99.99,,2013-02-24 16:21:00,
2013-02-24 09:31:00,10.0,2.0,-100.00,SSE,147,6.0,8.0,68,0.00,,,-99.99,,2013-02-24 16:31:00,
2013-02-24 09:41:00,13.0,5.0,-100.00,SSE,168,3.0,4.0,72,0.00,,,-99.99,,2013-02-24 16:41:00,
2013-02-24 09:52:00,15.0,6.0,-100.00,ESE,103,1.0,2.0,68,0.00,,,-99.99,,2013-02-24 16:52:00,
2013-02-24 10:01:00,15.0,6.0,-100.00,ESE,103,1.0,2.0,68,0.00,,,-99.99,,2013-02-24 17:01:00,
2013-02-24 10:11:00,15.0,6.0,-100.00,SSE,147,2.0,3.0,67,0.00,,,-99.99,,2013-02-24 17:11:00,
2013-02-24 10:21:00,15.0,7.0,-100.00,South,179,4.0,5.0,69,0.00,,,-99.99,,2013-02-24 17:21:00,
2013-02-24 10:31:00,15.0,7.0,-100.00,South,179,4.0,5.0,69,0.00,,,-99.99,,2013-02-24 17:31:00,
2013-02-24 10:41:00,15.0,7.0,-100.00,South,179,4.0,5.0,69,0.00,,,-99.99,,2013-02-24 17:41:00,
2013-02-24 10:52:00,18.0,9.0,-100.00,SSE,148,2.0,3.0,66,0.00,,,-99.99,,2013-02-24 17:52:00,
2013-02-24 11:01:00,18.0,9.0,-100.00,SSE,148,2.0,3.0,66,0.00,,,-99.99,,2013-02-24 18:01:00,
2013-02-24 11:11:00,20.0,11.0,-100.00,South,171,4.0,5.0,67,0.00,,,-99.99,,2013-02-24 18:11:00,
2013-02-24 11:21:00,22.0,12.0,-100.00,SSE,168,4.0,5.0,66,0.00,,,-99.99,,2013-02-24 18:21:00,
2013-02-24 11:31:00,22.0,12.0,-100.00,SSE,168,4.0,5.0,66,0.00,,,-99.99,,2013-02-24 18:31:00,
2013-02-24 11:41:00,23.0,14.0,-100.00,South,176,5.0,7.0,69,0.00,,,-99.99,,2013-02-24 18:41:00,
2013-02-24 11:52:00,25.0,15.0,-100.00,South,169,3.0,4.0,65,0.00,,,-99.99,,2013-02-24 18:52:00,
2013-02-24 12:01:00,25.0,15.0,-100.00,South,169,3.0,4.0,65,0.00,,,-99.99,,2013-02-24 19:01:00,
2013-02-24 12:11:00,25.0,15.0,-100.00,SE,145,5.0,6.0,65,0.00,,,-99.99,,2013-02-24 19:11:00,
2013-02-24 12:22:00,25.0,15.0,-100.00,SE,145,5.0,6.0,65,0.00,,,-99.99,,2013-02-24 19:22:00,
2013-02-24 12:31:00,25.0,15.0,-100.00,SE,145,5.0,6.0,65,0.00,,,-99.99,,2013-02-24 19:31:00,
2013-02-24 12:41:00,28.0,12.0,-100.00,SSE,152,5.0,6.0,51,0.00,,,-99.99,,2013-02-24 19:41:00,
2013-02-24 12:52:00,28.0,13.0,-100.00,SSE,154,6.0,8.0,52,0.00,,,-99.99,,2013-02-24 19:52:00,
2013-02-24 13:02:00,28.0,13.0,-100.00,SSE,154,6.0,8.0,52,0.00,,,-99.99,,2013-02-24 20:02:00,
2013-02-24 13:11:00,28.0,18.0,-100.00,South,174,8.0,10.0,65,0.00,,,-99.99,,2013-02-24 20:11:00,
2013-02-24 13:21:00,28.0,18.0,-100.00,South,174,8.0,10.0,65,0.00,,,-99.99,,2013-02-24 20:21:00,
2013-02-24 13:31:00,28.0,18.0,-100.00,South,174,8.0,10.0,65,0.00,,,-99.99,,2013-02-24 20:31:00,
2013-02-24 13:41:00,26.0,19.0,-100.00,WSW,241,10.0,12.0,73,0.00,,,-99.99,,2013-02-24 20:41:00,
2013-02-24 13:52:00,26.0,19.0,-100.00,WSW,241,10.0,12.0,73,0.00,,,-99.99,,2013-02-24 20:52:00,
2013-02-24 14:01:00,26.0,19.0,-100.00,WSW,241,10.0,12.0,73,0.00,,,-99.99,,2013-02-24 21:01:00,
2013-02-24 14:11:00,27.0,18.0,-100.00,WSW,247,11.0,14.0,69,0.00,,,-99.99,,2013-02-24 21:11:00,
2013-02-24 14:21:00,27.0,17.0,-100.00,SW,234,14.0,15.0,67,0.00,,,-99.99,,2013-02-24 21:21:00,
2013-02-24 14:32:00,27.0,17.0,-100.00,SW,234,14.0,15.0,67,0.00,,,-99.99,,2013-02-24 21:32:00,
2013-02-24 14:41:00,27.0,17.0,-100.00,SW,234,14.0,15.0,67,0.00,,,-99.99,,2013-02-24 21:41:00,
2013-02-24 14:52:00,27.0,17.0,-100.00,WSW,239,15.0,17.0,67,0.00,,,-99.99,,2013-02-24 21:52:00,
2013-02-24 15:01:00,27.0,17.0,-100.00,WSW,239,15.0,17.0,67,0.00,,,-99.99,,2013-02-24 22:01:00,
2013-02-24 15:11:00,27.0,19.0,-100.00,SW,233,16.0,18.0,71,0.00,,,-99.99,,2013-02-24 22:11:00,
2013-02-24 15:21:00,27.0,21.0,-100.00,WSW,241,15.0,18.0,78,0.00,,,-99.99,,2013-02-24 22:21:00,
2013-02-24 15:31:00,27.0,21.0,-100.00,WSW,241,15.0,18.0,78,0.00,,,-99.99,,2013-02-24 22:31:00,
2013-02-24 15:41:00,27.0,21.0,-100.00,WSW,241,15.0,18.0,78,0.00,,,-99.99,,2013-02-24 22:41:00,
2013-02-24 15:52:00,26.0,20.0,-100.00,WSW,248,15.0,18.0,79,0.00,,,-99.99,,2013-02-24 22:52:00,
2013-02-24 16:01:00,26.0,20.0,-100.00,WSW,248,15.0,18.0,79,0.00,,,-99.99,,2013-02-24 23:01:00,
2013-02-24 16:11:00,27.0,20.0,-100.00,WSW,246,13.0,16.0,75,0.00,,,-99.99,,2013-02-24 23:11:00,
2013-02-24 16:21:00,27.0,20.0,-100.00,WSW,246,11.0,14.0,77,0.00,,,-99.99,,2013-02-24 23:21:00,
2013-02-24 16:31:00,27.0,20.0,-100.00,WSW,246,11.0,14.0,77,0.00,,,-99.99,,2013-02-24 23:31:00,
2013-02-24 16:41:00,27.0,20.0,-100.00,WSW,246,11.0,14.0,77,0.00,,,-99.99,,2013-02-24 23:41:00,
2013-02-24 16:52:00,27.0,20.0,-100.00,WSW,250,11.0,12.0,76,0.00,,,-99.99,,2013-02-24 23:52:00,
2013-02-24 17:01:00,27.0,20.0,-100.00,WSW,250,11.0,12.0,76,0.00,,,-99.99,,2013-02-25 00:01:00,
2013-02-24 17:11:00,27.0,20.0,-100.00,WSW,250,11.0,12.0,76,0.00,,,-99.99,,2013-02-25 00:11:00,
2013-02-24 17:21:00,27.0,20.0,-100.00,WSW,241,9.0,11.0,74,0.00,,,-99.99,,2013-02-25 00:21:00,
2013-02-24 17:31:00,27.0,20.0,-100.00,WSW,241,9.0,11.0,74,0.00,,,-99.99,,2013-02-25 00:31:00,
2013-02-24 17:42:00,27.0,20.0,-100.00,SW,233,8.0,9.0,73,0.00,,,-99.99,,2013-02-25 00:42:00,
2013-02-24 17:52:00,27.0,19.0,-100.00,SW,236,9.0,10.0,74,0.00,,,-99.99,,2013-02-25 00:52:00,
2013-02-24 18:01:00,27.0,19.0,-100.00,SW,236,9.0,10.0,74,0.00,,,-99.99,,2013-02-25 01:01:00,
2013-02-24 18:11:00,27.0,19.0,-100.00,SW,236,9.0,10.0,74,0.00,,,-99.99,,2013-02-25 01:11:00,
2013-02-24 18:21:00,26.0,19.0,-100.00,SSW,198,4.0,6.0,76,0.00,,,-99.99,,2013-02-25 01:21:00,
2013-02-24 18:31:00,26.0,19.0,-100.00,SSW,198,4.0,6.0,76,0.00,,,-99.99,,2013-02-25 01:31:00,
2013-02-24 18:42:00,21.0,16.0,-100.00,South,179,4.0,6.0,82,0.00,,,-99.99,,2013-02-25 01:42:00,
2013-02-24 18:52:00,19.0,16.0,-100.00,South,171,7.0,8.0,88,0.00,,,-99.99,,2013-02-25 01:52:00,
2013-02-24 19:01:00,19.0,16.0,-100.00,South,171,7.0,8.0,88,0.00,,,-99.99,,2013-02-25 02:01:00,
2013-02-24 19:11:00,20.0,17.0,-100.00,South,181,5.0,6.0,86,0.00,,,-99.99,,2013-02-25 02:11:00,
2013-02-24 19:21:00,20.0,17.0,-100.00,South,181,5.0,6.0,86,0.00,,,-99.99,,2013-02-25 02:21:00,
2013-02-24 19:31:00,20.0,17.0,-100.00,South,181,5.0,6.0,86,0.00,,,-99.99,,2013-02-25 02:31:00,
2013-02-24 19:41:00,18.0,16.0,-100.00,SSE,155,7.0,8.0,91,0.00,,,-99.99,,2013-02-25 02:41:00,
2013-02-24 19:52:00,18.0,16.0,-100.00,SSE,161,6.0,7.0,91,0.00,,,-99.99,,2013-02-25 02:52:00,
2013-02-24 20:01:00,18.0,16.0,-100.00,SSE,161,6.0,7.0,91,0.00,,,-99.99,,2013-02-25 03:01:00,
2013-02-24 20:11:00,18.0,16.0,-100.00,SSE,161,6.0,7.0,91,0.00,,,-99.99,,2013-02-25 03:11:00,
2013-02-24 20:21:00,17.0,15.0,-100.00,South,191,3.0,3.0,90,0.00,,,-99.99,,2013-02-25 03:21:00,
2013-02-24 20:31:00,17.0,15.0,-100.00,South,191,3.0,3.0,90,0.00,,,-99.99,,2013-02-25 03:31:00,
2013-02-24 20:42:00,17.0,15.0,-100.00,SSW,198,4.0,5.0,91,0.00,,,-99.99,,2013-02-25 03:42:00,
2013-02-24 20:52:00,17.0,15.0,-100.00,SSW,203,2.0,3.0,90,0.00,,,-99.99,,2013-02-25 03:52:00,
2013-02-24 21:01:00,17.0,15.0,-100.00,SSW,203,2.0,3.0,90,0.00,,,-99.99,,2013-02-25 04:01:00,
2013-02-24 21:11:00,15.0,13.0,-100.00,South,176,3.0,3.0,92,0.00,,,-99.99,,2013-02-25 04:11:00,
2013-02-24 21:21:00,15.0,13.0,-100.00,South,176,3.0,3.0,92,0.00,,,-99.99,,2013-02-25 04:21:00,
2013-02-24 21:31:00,15.0,13.0,-100.00,South,176,3.0,3.0,92,0.00,,,-99.99,,2013-02-25 04:31:00,
2013-02-24 21:41:00,15.0,12.0,-100.00,South,191,4.0,5.0,92,0.00,,,-99.99,,2013-02-25 04:41:00,
2013-02-24 21:52:00,15.0,14.0,-100.00,South,191,4.0,5.0,93,0.00,,,-99.99,,2013-02-25 04:52:00,
2013-02-24 22:01:00,15.0,14.0,-100.00,South,191,4.0,5.0,93,0.00,,,-99.99,,2013-02-25 05:01:00,
2013-02-24 22:11:00,16.0,15.0,-100.00,SSW,199,3.0,6.0,94,0.00,,,-99.99,,2013-02-25 05:11:00,
2013-02-24 22:22:00,16.0,15.0,-100.00,SSW,199,3.0,6.0,94,0.00,,,-99.99,,2013-02-25 05:22:00,
2013-02-24 22:31:00,16.0,15.0,-100.00,SSW,199,3.0,6.0,94,0.00,,,-99.99,,2013-02-25 05:31:00,
2013-02-24 22:41:00,16.0,14.0,-100.00,SSW,212,4.0,6.0,94,0.00,,,-99.99,,2013-02-25 05:41:00,
2013-02-24 22:52:00,12.0,10.0,-100.00,SW,233,3.0,4.0,92,0.00,,,-99.99,,2013-02-25 05:52:00,
2013-02-24 23:02:00,12.0,10.0,-100.00,SW,233,3.0,4.0,92,0.00,,,-99.99,,2013-02-25 06:02:00,
2013-02-24 23:21:00,16.0,15.0,-100.00,SSW,210,2.0,4.0,94,0.00,,,-99.99,,2013-02-25 06:21:00,
2013-02-24 23:31:00,16.0,15.0,-100.00,SSW,210,2.0,4.0,94,0.00,,,-99.99,,2013-02-25 06:31:00,
2013-02-24 23:42:00,16.0,15.0,-100.00,SSW,210,2.0,4.0,94,0.00,,,-99.99,,2013-02-25 06:42:00,
2013-02-24 23:52:00,17.0,15.0,-100.00,SSW,208,4.0,5.0,93,0.00,,,-99.99,,2013-02-25 06:52:00,